Showing default

IPERDRONE.0, 60520

Orbit data source: Space-Track

IPERDRONE.0, 60520 is a payload satellite owned by ASI (IT) in SSO that was launched on Fri, 16 Aug 2024 UTC via an FALCON 9 launch vehicle from the Air Force Western Test Range (AFWTR). Payload-class satellites include a variety of spacecraft equipped with specific instruments for various scientific and technological missions. These include communications satellites like Starlink; space stations such as the ISS; scientific satellites like the Hubble; Earth observation satellites from companies like Planet Labs, Umbra, and HawkEye 360; GPS; miniature CubeSats for education and research; and military/defense satellites.

Loading next visibility...
Identifier
60520, 2024-149BE
Orbit
SSO
Country
Flag of ITIT
Related business
Manufacturer
TERRAN/ARGOT
Mission
Operational Civil Technology
Bus & Motor
CUBESAT 6U, Unknown motor
Mass
12 kg wet, 12 kg dry
Launch date (UTC)
2024-08-16 (1 year ago)
Launch vehicle
FALCON 9
Launch site
Air Force Western Test Range (AFWTR)
Object type
Payload
Rocket body
Debris
Shape & HBR
Box + 2 Pan, 0.3 m
Radar Cross Section
0.104 m², Medium (>0.1 m² and < 1m²)

Expand to show TLE details & history
Last TLE update: 14 hours ago

TLE from 14 hours ago
0 IPERDRONE.0
1 60520U 24149BE  25289.14863370  .00032336  00000-0  77187-3 0  9991
2 60520  97.3998  10.2376 0004845  67.5414 292.6346 15.41460735 65040
Epoch: 2025-10-16T03:34Z
TLE epoch observation values (Epoch: 2025-10-16T03:34:01.951Z)
Latitude
0.00002°
Longitude
-68.18304°
Altitude
443.646 km
Speed
7.647 km/s
True Right ascension
00h 40m 57s
True Declination
0° 00' 00"
Sunlit
Object was in full shadow at epoch
Visualization orbit readout
Latitude
Unknown
Longitude
Unknown
Altitude
Unknown
Speed
Unknown
Apparent Right ascension
Unknown
Apparent Declination
Unknown
Sunlit
N/A
Visualization observer readout
Local Sidereal Time
12:29:49
Azimuth
Unknown
Elevation
Unknown
Doppler factor
Unknown
Orbital elements
Apogee altitude
442.037 km
Perigee altitude
435.432 km
Semi-major axis
6,816.871 km
Eccentricity
0.00048
Inclination
97.3998°
RAAN
10.2376°
Arg. of periapsis
67.5414°
True anomaly
292.58334°
Mean anomaly
292.6346°
Eccentric anomaly
292.60897°
Mean motion
3.85625 °/min
Orbital period
93.35 mins
BSTAR
0.00077187
Loading maneuver chart data...
Computing Atmospheric mass density...
Loading historical data...
Loading historical data...
Loading historical data...
Loading historical data...
Loading historical data...
Loading historical data...
Loading historical data...

Documentation

Showing up to 5 results
|